Regional Weather Roundup
Issued by NWS Newport/Morehead, NC

Current Version | Previous Version | Text Only | Print | Product List | Glossary Off
Versions: 1 2 3 4 5 6 7 8 9 10 11 12 13 14 15 16 17 18 19 20 21 22 23 24 25 26 27 28 29 30 31 32 33 34 35 36 37 38 39 40 41 42 43 44 45 46 47 48 49 50
000 ASUS42 KMHX 020722 RWRMHX WEATHER ROUNDUP FOR EASTERN NORTH CAROLINA NATIONAL WEATHER SERVICE NEWPORT/MOREHEAD CITY NC 300 AM EDT THU OCT 02 2014 NOTE: "FAIR" INDICATES FEW OR NO CLOUDS BELOW 12,000 FEET WITH NO SIGNIFICANT WEATHER AND/OR OBSTRUCTIONS TO VISIBILITY NCZ015>017-031-032-045>047-102-103-020800- NORTH COAST CITY SKY/WX TMP DP RH WIND PRES REMARKS EDENTON MOCLDY 60 60 99 CALM 30.05F ELIZABETH CITY PTCLDY 62 61 96 W3 30.05S KITTY HAWK SUNNY 67 61 81 N5 30.03S MANTEO CLEAR 65 61 87 N3 30.05R $$ NCZ045>047-081-094-103-104-020800- CENTRAL COAST CITY SKY/WX TMP DP RH WIND PRES REMARKS FRISCO CLEAR 65 63 93 NE5 30.04R SWANQUARTER N/A 64 N/A N/A NW1 30.00S $$ NCZ095-097-098-100-101-020800- SOUTHERN COAST CITY SKY/WX TMP DP RH WIND PRES REMARKS BEAUFORT CLEAR 65 64 97 CALM 30.05S CEDAR ISLAND N/A 70 N/A N/A NE5 30.09S JACKSONVILLE CLEAR 63 62 97 CALM 30.05S NEWPORT NOT AVBL PINEY ISLAND SUNNY 71 64 78 NE5 30.04S WILMINGTON CLEAR 63 62 97 CALM 30.04S FOG $$ NCZ011>013-027>030-043-044-078>080-089-090>093-098-020800- COASTAL PLAIN CITY SKY/WX TMP DP RH WIND PRES REMARKS AHOSKIE PTCLDY 61 60 96 CALM 30.06S CLINTON CLEAR 61 61 100 CALM 30.06S FOG ELIZABETHTOWN PTCLDY 64 64 100 CALM 30.05S FOG GOLDSBORO CLEAR 61 61 98 CALM 30.04S GREENVILLE RAIN 61 61 100 CALM 30.08R VSB 1/2 HAVELOCK PTCLDY 64 62 93 CALM 30.06S FOG KENANSVILLE PTCLDY 59 57 94 CALM 30.06S FOG KINSTON N/A 60 60 99 CALM 30.07S FOG NEW BERN FOG 63 61 94 CALM 30.07S VSB 1 RICHLANDS CLEAR 59 55 88 CALM 30.05F ROANOKE RAPIDS NOT AVBL ROCKY MOUNT CLOUDY 61 60 97 CALM 30.07R FOG WASHINGTON CLEAR 60 59 96 CALM 30.07R WHITEVILLE CLEAR 63 61 96 CALM 30.05S $$ AMZ130-135-150-152-154-156-158-170-250-252-270-ANZ085-086-088-633-658-670-020800- MARINE OBSERVATIONS STATION/POSITION TIME TEMP WIND PRES WAVE SWELL AIR SEA DIR/SP/G HT/PER HT/PER (UTC) (F) (DEG/KT/KT) (MB) (FT/S) (FT/S) CHESAPEAKE LIGHT 0700 69 40/ 9/ 11 1018.0 BUOY 44014 0700 69 71 350/ 12/ 16 1016.3 4/ 7 3/ 7 DUCK 0700 69 73 30/ 7/ 9 1016.5 2E DUCK 0700 N/A 4/ 7 OREGON INLET 0700 68 74 20/ 7/ 10 1017.0 BUOY 44095 0700 73 N/A 4/ 7 2/13 20E OREGON INLET NOT AVBL HATTERAS CG 0700 69 74 40/ 5/ 6 1017.5 DIAMOND BUOY 0700 70 10/ 12/ 14 1016.6 3/ 7 2/ 7 CAPE LOOKOUT 0700 71 10/ 6/ 7 1017.1 BEAUFORT LAB 0700 69 75 10/ 3/ 4 1016.8 30 SE NEW RIVER 0700 74 79 60/ 6/ 8 1016.7 2/ 8 2/ 8 5 SE WRIGHTSVILL 0700 70 76 340/ 8/ 8 N/A BUOY 41002 0603 79 80 30/ 10/ 12 1015.5 3/ 5 3/ 5 BUOY 41004 0700 78 81 70/ 10/ 12 1016.2 2/ 7 2/ 7 $$

USA.gov is the U.S. government's official web portal to all federal, state and local government web resources and services.